Flag for U.S.A. Weather past 2 weeks in Pensacola, Florida, U.S.A.

Now
55 °F

Passing clouds.


Feels Like: 53 °F
Forecast: 51 / 69 °F
Wind: 7 mph from Northeast

Location: Pensacola Regional Airport


UV Index: 0 (Low)

Visibility: 10 mi


Pressure: 30.18 "Hg

Humidity: 77%

Dew point: 48 °F

Location of PensacolaLocation

Historic Weather in Pensacola

°F

Pensacola temperature yesterday

Maximum temperature yesterday: 67 °F (at 3:53 PM)
Minimum temperature yesterday: 42 °F (at 5:53 AM)
Average temperature yesterday: 54 °F

Past Weeks' High & Low Weather Summary

 TemperatureHumidityPressure
High78 °F (Apr 4, 12:53 PM)93% (Apr 2, 6:53 AM)30.29 "Hg (Apr 2, 6:53 AM)
Low42 °F (Apr 16, 5:53 AM)23% (Apr 9, 4:53 PM)29.67 "Hg (Apr 7, 3:53 PM)
Average66 °F74%30.03 "Hg
* Reported Apr 2 4:53 AM — Apr 17 4:02 AM, Pensacola, Weather by CustomWeather, © 2014

Note: Actual official high and low records may vary slightly from our data, if they occured in-between our weather recording intervals... More about our weather records

Advertising

Historic Weather Conditions — Data for Previous 24 hours

 ConditionsComfort  
Time TempWeatherWind HumidityBarometerVisibility
4:02 AM
Apr 17
56 °FMostly cloudy.9 mph75%30.17 "Hg10 mi
3:53 AM56 °FPartly cloudy.8 mph75%30.17 "Hg10 mi
2:53 AM57 °FPassing clouds.10 mph69%30.16 "Hg10 mi
1:53 AM57 °FPassing clouds.8 mph67%30.17 "Hg10 mi
12:53 AM56 °FClear.8 mph65%30.17 "Hg10 mi
11:53 PM
Apr 16
55 °FClear.5 mph74%30.18 "Hg10 mi
10:53 PM55 °FClear.3 mph77%30.18 "Hg10 mi
9:53 PM54 °FClear.5 mph72%30.18 "Hg10 mi
8:53 PM53 °FClear.No wind74%30.16 "Hg10 mi
7:53 PM57 °FClear.No wind64%30.16 "Hg10 mi
6:53 PM60 °FSunny.9 mph56%30.15 "Hg10 mi
5:53 PM63 °FSunny.9 mph48%30.13 "Hg10 mi
4:53 PM66 °FSunny.9 mph37%30.13 "Hg10 mi
3:53 PM67 °FSunny.No wind31%30.13 "Hg10 mi
2:53 PM66 °FSunny.5 mph33%30.15 "Hg10 mi
1:53 PM62 °FSunny.7 mph35%30.17 "Hg10 mi
12:53 PM60 °FSunny.3 mph38%30.20 "Hg10 mi
11:53 AM57 °FSunny.N/A41%30.23 "Hg10 mi
10:53 AM54 °FSunny.6 mph43%30.25 "Hg10 mi
9:53 AM51 °FSunny.8 mph44%30.25 "Hg10 mi
8:53 AM48 °FSunny.12 mph48%30.23 "Hg10 mi
7:53 AM45 °FSunny.9 mph53%30.22 "Hg10 mi
6:53 AM43 °FSunny.8 mph60%30.20 "Hg10 mi
5:53 AM42 °FClear.7 mph65%30.16 "Hg10 mi
Weather by CustomWeather, © 2014

See weather overview